Terminal Aerodrome Forecast
Issued by NWS El Paso, TX

Home | Current Version | Previous Version | Text Only | Print | Product List | Glossary On
Versions: 1 2 3 4 5 6 7 8 9 10 11 12 13
000
FTUS44 KEPZ 302300
TAFELP
TAF
KELP 302336Z 3100/3124 09011KT P6SM SHRA BKN020 OVC080
      TEMPO 3102/3106 3SM RA OVC015
     FM310600 08005KT 6SM -RA OVC015
     FM311500 VRB04KT P6SM VCSH BKN020 OVC100=

USA.gov is the U.S. government's official web portal to all federal, state and local government web resources and services.